| time (UTC) | temp C | wind direction | speed KPH | gust KPH | rain 1hr cm | rain 24hr cm | rain mn cm | humidity % | barometer mb |
| 20260903093036 | 5 | 179 | 4.8 | 12.9 | 0.00 | 0.84 | 0.00 | 94 | 1011.3 |
| 20260903091532 | 6 | 157 | 6.4 | 12.9 | 0.00 | 0.84 | 0.00 | 94 | 1011.3 |
| 20260903090036 | 5 | 143 | 6.4 | 11.3 | 0.00 | 0.84 | 0.00 | 93 | 1011.5 |
| 20260903084534 | 6 | 148 | 6.4 | 9.7 | 0.00 | 0.84 | 0.00 | 93 | 1011.5 |
| 20260903083036 | 6 | 158 | 6.4 | 11.3 | 0.00 | 0.84 | 0.00 | 93 | 1011.4 |
| 20260903081531 | 5 | 154 | 6.4 | 12.9 | 0.00 | 0.84 | 0.00 | 93 | 1011.4 |
| 20260903080142 | 6 | 156 | 6.4 | 9.7 | 0.00 | 0.84 | 0.00 | 93 | 1011.3 |
| 20260903074537 | 6 | 167 | 4.8 | 8.0 | 0.00 | 0.84 | 0.00 | 92 | 1011.2 |
| 20260903073036 | 6 | 171 | 4.8 | 8.0 | 0.00 | 0.84 | 0.00 | 92 | 1011.1 |
| 20260903071653 | 6 | 339 | 1.6 | 9.7 | 0.00 | 0.84 | 0.00 | 92 | 1011.1 |
| 20260903070035 | 6 | 202 | 0.0 | 6.4 | 0.00 | 0.84 | 0.00 | 91 | 1011.0 |
| 20260903063142 | 7 | 328 | 4.8 | 11.3 | 0.00 | 0.84 | 0.84 | 90 | 1011.0 |
| 20260903061536 | 7 | 167 | 4.8 | 9.7 | 0.00 | 0.84 | 0.84 | 90 | 1011.0 |
| 20260903060036 | 8 | 346 | 3.2 | 9.7 | 0.00 | 0.84 | 0.84 | 90 | 1010.9 |
| 20260903054531 | 8 | 316 | 9.7 | 19.3 | 0.00 | 0.84 | 0.84 | 90 | 1010.9 |
| 20260903053030 | 8 | 359 | 4.8 | 12.9 | 0.00 | 0.84 | 0.84 | 89 | 1010.9 |
| 20260903051537 | 9 | 352 | 4.8 | 12.9 | 0.00 | 0.84 | 0.84 | 88 | 1010.9 |
| 20260903050036 | 9 | 344 | 9.7 | 20.9 | 0.00 | 0.84 | 0.84 | 89 | 1010.8 |
| 20260903044605 | 9 | 16 | 11.3 | 24.1 | 0.00 | 0.84 | 0.84 | 90 | 1010.6 |
| 20260903043031 | 9 | 60 | 8.0 | 19.3 | 0.00 | 0.84 | 0.84 | 89 | 1010.4 |
| 20260903041531 | 9 | 233 | 11.3 | 33.8 | 0.03 | 0.84 | 0.84 | 91 | 1010.2 |
| 20260903034531 | 10 | 263 | 6.4 | 22.5 | 0.05 | 0.84 | 0.81 | 94 | 1010.0 |
| 20260903031536 | 10 | 234 | 4.8 | 16.1 | 0.15 | 0.81 | 0.79 | 94 | 1010.2 |
| 20260903030036 | 10 | 292 | 3.2 | 11.3 | 0.23 | 0.79 | 0.79 | 94 | 1010.1 |
| 20260903024532 | 11 | 349 | 4.8 | 9.7 | 0.28 | 0.79 | 0.76 | 94 | 1010.1 |
| 20260903023030 | 11 | 354 | 4.8 | 11.3 | 0.28 | 0.76 | 0.66 | 94 | 1010.1 |
| 20260903021532 | 11 | 260 | 3.2 | 16.1 | 0.18 | 0.66 | 0.56 | 94 | 1010.0 |
| 20260903020129 | 12 | 308 | 4.8 | 12.9 | 0.13 | 0.56 | 0.51 | 94 | 1009.5 |
| 20260903014531 | 12 | 267 | 1.6 | 8.0 | 0.13 | 0.51 | 0.48 | 93 | 1009.1 |
| 20260903013033 | 11 | 307 | 1.6 | 9.7 | 0.13 | 0.48 | 0.48 | 93 | 1009.1 |
| 20260903010037 | 12 | 301 | 1.6 | 6.4 | 0.18 | 0.43 | 0.38 | 93 | 1009.3 |
| 20260903004536 | 12 | 253 | 3.2 | 8.0 | 0.13 | 0.38 | 0.36 | 93 | 1009.4 |
| 20260903003033 | 12 | 295 | 3.2 | 9.7 | 0.13 | 0.36 | 0.36 | 92 | 1009.3 |
| 20260902234608 | 12 | 8 | 3.2 | 8.0 | 0.05 | 0.25 | 0.23 | 91 | 1009.3 |
| 20260902231535 | 12 | 306 | 3.2 | 8.0 | 0.08 | 0.23 | 0.20 | 91 | 1009.4 |
| 20260902230038 | 12 | 296 | 4.8 | 8.0 | 0.05 | 0.20 | 0.20 | 91 | 1009.6 |
| 20260902224533 | 12 | 298 | 4.8 | 11.3 | 0.08 | 0.20 | 0.18 | 90 | 1009.4 |
| 20260902223032 | 12 | 278 | 3.2 | 14.5 | 0.05 | 0.18 | 0.15 | 90 | 1009.5 |
| 20260902221536 | 12 | 290 | 6.4 | 14.5 | 0.03 | 0.15 | 0.15 | 89 | 1009.3 |
| 20260902214534 | 12 | 294 | 4.8 | 16.1 | 0.05 | 0.13 | 0.13 | 87 | 1009.0 |
| 20260902213033 | 12 | 261 | 4.8 | 17.7 | 0.08 | 0.13 | 0.13 | 86 | 1009.0 |
| 20260902211534 | 12 | 203 | 3.2 | 14.5 | 0.10 | 0.13 | 0.10 | 86 | 1008.9 |
| 20260902210029 | 12 | 147 | 0.0 | 6.4 | 0.10 | 0.10 | 0.08 | 85 | 1009.0 |
| 20260902204533 | 12 | 115 | 3.2 | 9.7 | 0.08 | 0.08 | 0.05 | 84 | 1009.3 |
| 20260902203036 | 12 | 62 | 3.2 | 6.4 | 0.05 | 0.05 | 0.03 | 83 | 1009.3 |
| 20260902201536 | 12 | 186 | 3.2 | 9.7 | 0.03 | 0.03 | 0.00 | 82 | 1009.5 |
| 20260902193033 | 13 | 130 | 6.4 | 17.7 | 0.00 | 0.00 | 0.00 | 78 | 1009.3 |
| 20260902191532 | 13 | 110 | 6.4 | 14.5 | 0.00 | 0.00 | 0.00 | 74 | 1009.3 |
| 20260902190034 | 14 | 127 | 9.7 | 24.1 | 0.00 | 0.00 | 0.00 | 74 | 1009.5 |
| 20260902184648 | 14 | 65 | 3.2 | 11.3 | 0.00 | 0.00 | 0.00 | 76 | 1009.5 |
| 20260902183031 | 14 | 327 | 1.6 | 8.0 | 0.00 | 0.00 | 0.00 | 76 | 1009.6 |
| 20260902174530 | 13 | 302 | 3.2 | 12.9 | 0.00 | 0.00 | 0.00 | 75 | 1009.5 |
| 20260902173108 | 15 | 281 | 4.8 | 11.3 | 0.00 | 0.00 | 0.00 | 73 | 1009.4 |
| 20260902171534 | 15 | 287 | 3.2 | 9.7 | 0.00 | 0.00 | 0.00 | 72 | 1009.5 |
| 20260902164534 | 16 | 302 | 3.2 | 11.3 | 0.00 | 0.00 | 0.00 | 74 | 1009.7 |
| 20260902163031 | 15 | 355 | 3.2 | 8.0 | 0.00 | 0.00 | 0.00 | 76 | 1009.9 |
| 20260902161534 | 15 | 358 | 4.8 | 8.0 | 0.00 | 0.00 | 0.00 | 77 | 1010.2 |
| 20260902160031 | 13 | 294 | 1.6 | 6.4 | 0.00 | 0.00 | 0.00 | 80 | 1010.3 |
| 20260902154534 | 13 | 263 | 0.0 | 6.4 | 0.00 | 0.00 | 0.00 | 81 | 1010.5 |
| 20260902153035 | 13 | 220 | 0.0 | 6.4 | 0.00 | 0.00 | 0.00 | 85 | 1010.5 |
| 20260902151536 | 12 | 181 | 3.2 | 8.0 | 0.00 | 0.00 | 0.00 | 88 | 1010.5 |
| 20260902150104 | 11 | 180 | 1.6 | 4.8 | 0.00 | 0.00 | 0.00 | 89 | 1010.6 |
| 20260902144530 | 10 | 180 | 0.0 | 6.4 | 0.00 | 0.00 | 0.00 | 90 | 1010.8 |
| 20260902143028 | 8 | 165 | 6.4 | 9.7 | 0.00 | 0.00 | 0.00 | 90 | 1010.9 |
| 20260902141532 | 8 | 186 | 3.2 | 6.4 | 0.00 | 0.00 | 0.00 | 90 | 1010.9 |
| 20260902140036 | 7 | 176 | 3.2 | 8.0 | 0.00 | 0.00 | 0.00 | 90 | 1011.1 |
| 20260902134532 | 7 | 169 | 4.8 | 8.0 | 0.00 | 0.00 | 0.00 | 89 | 1011.1 |
| 20260902133034 | 7 | 189 | 3.2 | 6.4 | 0.00 | 0.00 | 0.00 | 89 | 1011.0 |
| 20260902131538 | 6 | 166 | 3.2 | 6.4 | 0.00 | 0.00 | 0.00 | 88 | 1011.1 |
| 20260902130032 | 7 | 167 | 3.2 | 8.0 | 0.00 | 0.00 | 0.00 | 86 | 1011.1 |
| 20260902123038 | 7 | 172 | 4.8 | 9.7 | 0.00 | 0.00 | 0.00 | 85 | 1011.2 |
| 20260902121532 | 7 | 167 | 3.2 | 8.0 | 0.00 | 0.00 | 0.00 | 84 | 1011.3 |
| 20260902120029 | 8 | 117 | 1.6 | 6.4 | 0.00 | 0.00 | 0.00 | 82 | 1011.3 |
| 20260902114531 | 10 | 129 | 3.2 | 9.7 | 0.00 | 0.00 | 0.00 | 82 | 1011.4 |
| 20260902113035 | 10 | 42 | 8.0 | 17.7 | 0.00 | 0.00 | 0.00 | 83 | 1011.3 |
| 20260902111536 | 10 | 53 | 6.4 | 12.9 | 0.00 | 0.00 | 0.00 | 84 | 1011.2 |
| 20260902110036 | 10 | 51 | 8.0 | 14.5 | 0.00 | 0.00 | 0.00 | 86 | 1011.1 |
| 20260902104534 | 8 | 76 | 6.4 | 12.9 | 0.00 | 0.00 | 0.00 | 87 | 1011.3 |
| 20260902103029 | 7 | 104 | 4.8 | 11.3 | 0.00 | 0.00 | 0.00 | 87 | 1011.4 |
| 20260902100105 | 8 | 140 | 3.2 | 9.7 | 0.00 | 0.00 | 0.00 | 87 | 1011.5 |
| 20260902094610 | 8 | 229 | 1.6 | 11.3 | 0.00 | 0.00 | 0.00 | 86 | 1011.7 |